User: anonymous   Login
Location: Branche des Alpilles
(43.6087°N, 4.6976°E)
Time: 00:28:28
(UTC+00:00)
Language:

Meteor 1-27 Rocket - Orbit

View from above orbital plane
View from above orbital plane
View from above satellite
View from above satellite

Ground track
Ground track

The orbit data is extracted from the following two-line orbital elements,

1  9904U 77024B   21061.50225534  .00000071  00000-0  34107-4 0  9995
2  9904  81.2589 261.1579 0054981 113.2453 247.4518 14.06900974253230
Epoch (UTC): 02 March 2021 12:03:14
Eccentricity: 0.0054981
inclination: 81.2589°
perigee height: 830 km
apogee height: 910 km
right ascension of ascending node: 261.1579°
argument of perigee: 113.2453°
revolutions per day: 14.06900974
mean anomaly at epoch: 247.4518°
orbit number at epoch: 25323

The dashed part of the orbit path shows where the satellite is in the earth's shadow,  

DLR